COSMOS 2491 DEB, 57550

Orbit data source: Space-Track

COSMOS 2491 DEB, 57550 is space debris in LEO originally from a launch on Wed, 25 Dec 2013 UTC launched from the Plesetsk Missile And Space Complex (PKMTR). Debris objects in space refer to the collection of defunct objects orbiting the Earth. Examples of debris include non-operational satellites, rocket bodies, and fragments generated from explosions, collisions, or faulty payload assembly.

Loading next visibility...
COSMOS 2491 DEB details
Identifier
57550, 2013-076AM
Orbit
LEO
Last TLE update3 days ago
Origin
Flag of CISTsNIIKhM (CIS)
ManufacturerTsNIIKhM
MissionSpacecraft
Bus & MotorUnknown
MassUnknown
Launch date (UTC)
2013-12-25 (11 years ago)
Launch vehicleUnknown
Launch site
Plesetsk Missile And Space Complex (PKMTR)
Object type
Payload
Rocket body
Debris
Shape & HBRUnknown
Radar Cross SectionSmall (<0.1 m²)

Expand to show TLE details & history

TLE from 3 days ago
0 COSMOS 2491 DEB
1 57550U 13076AM  25021.85856224  .00004409  00000-0  19853-1 0  9993
2 57550  82.4593  76.2874 0211278 198.1053 161.2439 12.71501460 79006
Epoch: 2025-01-21T20:36Z
Definitive object data (Epoch: 2025-01-21T20:36:19.777Z)
Latitude-0.00007°
Longitude5.74623°
Altitude1,534.069 km
Speed7.028 km/s
True Right ascension05h 05m 08s
True Declination0° 00' 00"
Sunlit
Object was in full shadow at TLE epoch
Visualization TLE readout
Latitude7.03873°
Longitude4.91207°
Altitude1,541.072 km
Speed7.021 km/s
Apparent Right ascension03h 55m 42s
Apparent Declination-14° 38' 01"
Sunlit
Object is in full shadow
Visualization observer readout
Local Sidereal Time14:07:06
Azimuth309.087° NW
Elevation-55.329°
Doppler factor1
Orbital elements
Apogee altitude1,536.908 km
Perigee altitude1,209.373 km
Semi-major axis7,751.277 km
Eccentricity0.0211278
Inclination82.4593°
RAAN76.2874°
Arg. of periapsis198.1053°
True anomaly162.00334°
Mean anomaly161.2439°
Eccentric anomaly161.62549°
Mean motion3.18041 °/min
BSTAR0.019853
Orbital period113.19 mins
Loading maneuver chart data...
Loading historical data...
Loading historical data...
Loading historical data...
Loading historical data...
Loading historical data...
Loading historical data...
Loading historical data...

COSMOS 2491 DEB Visibility forecast

Observer location: undefined°, undefined

Span
Click to sort rows by Start time (UTC) header in descending order
Start Az.
Max El. time (UTC)
Max El. Az.
Max El.
End time (UTC)
End Az.
9 mins2025-01-24 13:27:11.516Z25.505° NE2025-01-24 13:32:11.516Z68.496° E18.151°2025-01-24 13:36:11.516Z103.025° ESE
14 mins2025-01-24 15:20:11.516Z348.876° N2025-01-24 15:27:11.516Z242.271° WSW44.225°2025-01-24 15:34:11.516Z180.885° SSW
9 mins2025-01-25 02:11:11.516Z111.812° ESE2025-01-25 02:15:11.516Z81.46° E18.677°2025-01-25 02:20:11.516Z43.275° NE
16 mins2025-01-25 04:01:11.516Z188.488° SSW2025-01-25 04:08:11.516Z227.715° WSW44.731°2025-01-25 04:17:11.516Z6.788° NNE
9 mins2025-01-25 06:00:11.516Z267.997° W2025-01-25 06:04:11.516Z298.48° NW17.091°2025-01-25 06:09:11.516Z334.987° NNW
|